.
WxDataArchive / Data Records for 2009-09-15
2009-09-14 September 2009 2009-09-16

Data Records for Tuesday, 15 September 2009

Time	Temp	Chill	HIndex	Humid	Dewpt	 Wind 	HiWind	WindDir	Rain 	Barom 
-----	----	-----	------	-----	-----	------	------	-------	-----	----- 
00:00	63.1	63.1	63.1	90	60.1	0	0	---	0.00	30.039 
00:05	63.1	63.1	63.1	90	60.1	0	0	---	0.00	30.039 
00:10	62.9	62.9	62.9	90	59.9	0	0	---	0.00	30.039 
00:15	62.7	62.7	62.7	91	60.0	0	0	---	0.00	30.040 
00:20	62.6	62.6	62.6	91	59.9	0	0	---	0.00	30.040 
00:25	62.4	62.4	62.4	91	59.7	0	0	---	0.00	30.040 
00:30	62.4	62.4	62.4	91	59.7	0	0	---	0.00	30.044 
00:35	62.3	62.3	62.3	91	59.6	0	0	---	0.00	30.044 
00:40	62.1	62.1	62.1	91	59.4	0	0	---	0.00	30.044 
00:45	62.0	62.0	62.0	92	59.6	0	0	---	0.00	30.036 
00:50	62.0	62.0	62.0	92	59.6	0	0	---	0.00	30.036 
00:55	61.8	61.8	61.8	92	59.4	0	0	---	0.00	30.036 
01:00	61.6	61.6	61.6	92	59.2	0	0	---	0.00	30.035 
01:05	61.6	61.6	61.6	92	59.2	0	0	---	0.00	30.035 
01:10	61.5	61.5	61.5	92	59.2	0	0	---	0.00	30.035 
01:15	61.5	61.5	61.5	92	59.2	0	0	---	0.00	30.033 
01:20	61.3	61.3	61.3	92	59.0	0	0	---	0.00	30.033 
01:25	61.2	61.2	61.2	93	59.2	0	0	---	0.00	30.033 
01:30	61.2	61.2	61.2	93	59.2	0	0	---	0.00	30.035 
01:35	61.0	61.0	61.0	93	59.0	0	0	---	0.00	30.035 
01:40	60.9	60.9	60.9	93	58.9	0	0	---	0.00	30.035 
01:45	60.9	60.9	60.9	93	58.9	0	0	---	0.00	30.034 
01:50	60.7	60.7	60.7	93	58.7	0	0	---	0.00	30.034 
01:55	60.7	60.7	60.7	93	58.7	0	0	---	0.00	30.034 
02:00	60.5	60.5	60.5	93	58.5	0	0	---	0.00	30.034 
02:05	60.5	60.5	60.5	94	58.8	0	0	---	0.00	30.034 
02:10	60.5	60.5	60.5	94	58.8	0	0	---	0.00	30.034 
02:15	60.5	60.5	60.5	94	58.8	0	0	---	0.00	30.032 
02:20	60.4	60.4	60.4	94	58.7	0	0	---	0.00	30.032 
02:25	60.4	60.4	60.4	94	58.7	0	0	---	0.00	30.032 
02:30	60.4	60.4	60.4	94	58.7	0	0	---	0.00	30.035 
02:35	60.4	60.4	60.4	94	58.7	0	0	---	0.00	30.035 
02:40	60.2	60.2	60.2	94	58.5	0	0	---	0.00	30.035 
02:45	60.2	60.2	60.2	94	58.5	0	0	---	0.00	30.034 
02:50	60.1	60.1	60.1	94	58.4	0	0	---	0.00	30.034 
02:55	59.9	59.9	59.9	94	58.2	0	0	---	0.00	30.034 
03:00	59.8	59.8	59.8	94	58.1	0	0	---	0.00	30.033 
03:05	59.8	59.8	59.8	94	58.1	0	0	---	0.00	30.033 
03:10	59.6	59.6	59.6	94	57.9	0	0	---	0.00	30.033 
03:15	59.6	59.6	59.6	95	58.2	0	0	---	0.00	30.029 
03:20	59.6	59.6	59.6	95	58.2	0	0	---	0.00	30.029 
03:25	59.6	59.6	59.6	95	58.2	0	0	---	0.00	30.029 
03:30	59.6	59.6	59.6	95	58.2	0	0	---	0.00	30.026 
03:35	59.6	59.6	59.6	95	58.2	0	0	---	0.00	30.026 
03:40	59.6	59.6	59.6	95	58.2	0	0	---	0.00	30.026 
03:45	59.6	59.6	59.6	95	58.2	0	0	---	0.00	30.024 
03:50	59.6	59.6	59.6	95	58.2	0	0	---	0.00	30.024 
03:55	59.5	59.5	59.5	95	58.1	0	0	---	0.00	30.024 
04:00	59.3	59.3	59.3	95	57.9	0	0	---	0.00	30.024 
04:05	59.3	59.3	59.3	95	57.9	0	0	---	0.00	30.024 
04:10	59.3	59.3	59.3	95	57.9	0	0	---	0.00	30.024 
04:15	59.2	59.2	59.2	95	57.8	0	0	---	0.00	30.023 
04:20	59.0	59.0	59.0	95	57.6	0	0	---	0.00	30.023 
04:25	59.0	59.0	59.0	95	57.6	0	0	---	0.00	30.023 
04:30	59.0	59.0	59.0	95	57.6	0	0	---	0.00	30.021 
04:35	59.0	59.0	59.0	95	57.6	0	0	---	0.00	30.021 
04:40	59.0	59.0	59.0	95	57.6	0	0	---	0.00	30.021 
04:45	59.0	59.0	59.0	95	57.6	0	0	---	0.00	30.021 
04:50	58.9	58.9	58.9	95	57.5	0	0	---	0.00	30.021 
04:55	58.9	58.9	58.9	95	57.5	0	0	---	0.00	30.021 
05:00	58.7	58.7	58.7	95	57.3	0	0	---	0.00	30.021 
05:05	58.7	58.7	58.7	95	57.3	0	0	---	0.00	30.021 
05:10	58.6	58.6	58.6	95	57.2	0	0	---	0.00	30.021 
05:15	58.6	58.6	58.6	96	57.5	0	0	---	0.00	30.022 
05:20	58.6	58.6	58.6	96	57.5	0	0	---	0.00	30.022 
05:25	58.4	58.4	58.4	96	57.3	0	0	---	0.00	30.022 
05:30	58.4	58.4	58.4	96	57.3	0	0	---	0.00	30.029 
05:35	58.3	58.3	58.3	96	57.2	0	0	---	0.00	30.029 
05:40	58.3	58.3	58.3	96	57.2	0	0	---	0.00	30.029 
05:45	58.3	58.3	58.3	96	57.2	0	0	---	0.00	30.032 
05:50	58.3	58.3	58.3	96	57.2	0	0	---	0.00	30.032 
05:55	58.3	58.3	58.3	96	57.2	0	0	---	0.00	30.032 
06:00	58.1	58.1	58.1	96	57.0	0	0	---	0.00	30.033 
06:05	58.0	58.0	58.0	96	56.9	0	0	---	0.00	30.033 
06:10	58.0	58.0	58.0	96	56.9	0	0	---	0.00	30.033 
06:15	57.8	57.8	57.8	96	56.7	0	0	---	0.00	30.037 
06:20	57.8	57.8	57.8	96	56.7	0	0	---	0.00	30.037 
06:25	57.8	57.8	57.8	96	56.7	0	0	---	0.00	30.037 
06:30	57.6	57.6	57.6	96	56.5	0	0	---	0.00	30.038 
06:35	57.6	57.6	57.6	96	56.5	0	0	---	0.00	30.038 
06:40	57.6	57.6	57.6	96	56.5	0	0	---	0.00	30.038 
06:45	57.5	57.5	57.5	96	56.4	0	0	---	0.00	30.037 
06:50	57.3	57.3	57.3	96	56.2	0	0	---	0.00	30.037 
06:55	57.3	57.3	57.3	96	56.2	0	0	---	0.00	30.037 
07:00	57.2	57.2	57.2	96	56.1	0	0	---	0.00	30.040 
07:05	57.2	57.2	57.2	96	56.1	0	0	---	0.00	30.040 
07:10	57.2	57.2	57.2	96	56.1	0	0	---	0.00	30.040 
07:15	57.2	57.2	57.2	96	56.1	0	0	---	0.00	30.048 
07:20	57.2	57.2	57.2	96	56.1	0	0	---	0.00	30.048 
07:25	57.2	57.2	57.2	96	56.1	0	0	---	0.00	30.048 
07:30	57.2	57.2	57.2	96	56.1	0	0	---	0.00	30.054 
07:35	57.0	57.0	57.0	96	55.9	0	0	---	0.00	30.054 
07:40	57.0	57.0	57.0	96	55.9	0	0	---	0.00	30.054 
07:45	57.0	57.0	57.0	96	55.9	0	0	---	0.00	30.057 
07:50	57.2	57.2	57.2	96	56.1	0	0	---	0.00	30.057 
07:55	57.2	57.2	57.2	96	56.1	0	0	---	0.00	30.057 
08:00	57.3	57.3	57.3	96	56.2	0	0	---	0.00	30.058 
08:05	57.5	57.5	57.5	96	56.4	0	0	---	0.00	30.058 
08:10	57.8	57.8	57.8	96	56.7	0	0	---	0.00	30.058 
08:15	58.1	58.1	58.1	96	57.0	0	0	---	0.00	30.062 
08:20	58.4	58.4	58.4	96	57.3	0	0	---	0.00	30.062 
08:25	58.7	58.7	58.7	96	57.6	0	0	---	0.00	30.062 
08:30	59.2	59.2	59.2	96	58.1	0	0	---	0.00	30.061 
08:35	59.9	59.9	59.9	97	59.0	0	0	---	0.00	30.061 
08:40	60.5	60.5	60.5	97	59.6	0	0	---	0.00	30.061 
08:45	61.0	61.0	61.0	97	60.1	0	0	---	0.00	30.058 
08:50	61.5	61.5	61.5	97	60.6	0	0	---	0.00	30.058 
08:55	61.3	61.3	61.3	96	60.1	0	0	---	0.00	30.058 
09:00	61.8	61.8	61.8	96	60.6	0	0	---	0.00	30.061 
09:05	62.3	62.3	62.3	96	61.1	0	0	---	0.00	30.061 
09:10	62.6	62.6	62.6	96	61.4	0	0	---	0.00	30.061 
09:15	63.2	63.2	63.2	96	62.0	0	0	---	0.00	30.063 
09:20	63.9	63.9	63.9	96	62.7	0	0	---	0.00	30.063 
09:25	64.5	64.5	64.5	95	63.0	0	0	---	0.00	30.063 
09:30	64.8	64.8	64.8	93	62.7	0	0	---	0.00	30.064 
09:35	65.3	65.3	65.3	92	62.9	0	0	---	0.00	30.064 
09:40	65.8	65.8	65.8	91	63.1	0	0	---	0.00	30.064 
09:45	66.4	66.4	66.4	89	63.1	0	0	---	0.00	30.062 
09:50	67.1	67.1	67.1	88	63.4	0	0	---	0.00	30.062 
09:55	67.8	67.8	67.8	85	63.1	0	0	---	0.00	30.062 
10:00	68.6	68.6	68.6	84	63.6	0	0	---	0.00	30.062 
10:05	69.1	69.1	69.1	81	63.0	0	0	---	0.00	30.062 
10:10	69.8	69.8	69.8	79	63.0	0	0	---	0.00	30.062 
10:15	70.4	70.4	70.4	78	63.2	0	0	---	0.00	30.063 
10:20	71.1	71.1	71.1	77	63.5	0	0	---	0.00	30.063 
10:25	72.1	72.1	72.1	76	64.1	0	0	---	0.00	30.063 
10:30	72.8	72.8	72.8	72	63.2	0	0	---	0.00	30.059 
10:35	73.2	73.2	73.2	73	64.0	0	0	---	0.00	30.059 
10:40	73.7	73.7	73.7	72	64.1	0	0	---	0.00	30.059 
10:45	74.6	74.6	74.6	71	64.6	0	0	---	0.00	30.059 
10:50	75.3	75.3	77.0	69	64.4	0	2	292	0.00	30.059 
10:55	75.4	75.4	77.1	69	64.5	0	1	292	0.00	30.059 
11:00	75.8	75.8	77.6	67	64.0	0	1	292	0.00	30.054 
11:05	76.1	76.1	77.9	66	63.9	0	1	292	0.00	30.054 
11:10	76.5	76.5	78.3	65	63.8	0	1	292	0.00	30.054 
11:15	77.2	77.2	79.0	61	62.7	1	4	112	0.00	30.053 
11:20	77.7	77.7	79.3	58	61.7	0	2	112	0.00	30.053 
11:25	77.7	77.7	79.4	59	62.2	0	1	112	0.00	30.053 
11:30	77.7	77.7	79.4	61	63.2	0	2	112	0.00	30.053 
11:35	78.1	78.1	79.6	57	61.6	0	1	112	0.00	30.053 
11:40	78.8	78.8	80.4	59	63.2	0	2	112	0.00	30.053 
11:45	79.2	79.2	80.5	55	61.6	0	1	112	0.00	30.050 
11:50	79.6	79.6	81.1	57	63.0	0	1	112	0.00	30.050 
11:55	79.9	79.9	81.2	55	62.3	0	1	112	0.00	30.050 
12:00	80.3	80.3	81.4	53	61.6	1	3	112	0.00	30.049 
12:05	80.1	80.1	81.3	54	61.9	0	2	112	0.00	30.049 
12:10	80.1	80.1	81.4	55	62.4	0	2	112	0.00	30.049 
12:15	80.1	80.1	81.6	57	63.5	0	1	112	0.00	30.049 
12:20	80.5	80.5	81.7	54	62.3	0	1	112	0.00	30.049 
12:25	80.7	80.7	81.8	53	62.0	0	1	112	0.00	30.049 
12:30	81.1	81.1	82.0	51	61.2	0	1	112	0.00	30.049 
12:35	81.4	81.4	82.5	53	62.6	0	1	112	0.00	30.049 
12:40	81.1	81.1	81.7	49	60.1	0	1	112	0.00	30.049 
12:45	80.9	80.9	81.5	49	59.9	0	2	112	0.00	30.048 
12:50	81.1	81.1	82.2	53	62.3	0	2	112	0.00	30.048 
12:55	81.2	81.2	81.9	50	60.8	0	2	112	0.00	30.048 
13:00	81.1	81.1	81.7	49	60.1	0	2	45	0.00	30.047 
13:05	80.9	80.9	81.4	48	59.3	1	3	292	0.00	30.047 
13:10	80.9	80.9	81.5	49	59.9	1	2	292	0.00	30.047 
13:15	81.1	81.1	81.5	47	58.9	0	3	292	0.00	30.044 
13:20	80.9	80.9	81.5	49	59.9	0	2	292	0.00	30.044 
13:25	80.5	80.5	81.0	48	59.0	0	1	292	0.00	30.044 
13:30	80.7	80.7	81.2	48	59.2	0	1	292	0.00	30.039 
13:35	81.4	81.4	82.1	50	60.9	0	1	292	0.00	30.039 
13:40	82.0	82.0	82.2	46	59.1	0	2	292	0.00	30.039 
13:45	81.6	81.6	81.8	46	58.8	0	2	292	0.00	30.036 
13:50	81.4	81.4	81.6	46	58.6	0	2	315	0.00	30.036 
13:55	81.6	81.6	82.1	48	60.0	0	2	315	0.00	30.036 
14:00	81.6	81.6	82.5	51	61.7	1	5	68	0.00	30.033 
14:05	81.8	81.8	82.6	50	61.3	0	1	68	0.00	30.033 
14:10	82.0	82.0	82.6	49	60.9	0	1	68	0.00	30.033 
14:15	82.0	82.0	82.8	50	61.5	0	1	68	0.00	30.031 
14:20	82.4	82.4	82.9	48	60.7	1	9	270	0.00	30.031 
14:25	82.6	82.6	83.8	52	63.2	1	4	292	0.00	30.031 
14:30	83.0	83.0	84.1	51	63.0	1	2	270	0.00	30.030 
14:35	82.8	82.8	83.7	50	62.2	0	2	338	0.00	30.030 
14:40	82.0	82.0	82.8	50	61.5	0	1	338	0.00	30.030 
14:45	81.8	81.8	82.4	49	60.7	0	1	338	0.00	30.028 
14:50	82.2	82.2	83.0	50	61.7	0	2	338	0.00	30.028 
14:55	82.6	82.6	83.1	48	60.9	1	3	292	0.00	30.028 
15:00	82.6	82.6	83.3	49	61.5	0	1	292	0.00	30.023 
15:05	82.8	82.8	82.9	45	59.3	0	2	292	0.00	30.023 
15:10	82.8	82.8	83.3	48	61.1	0	1	292	0.00	30.023 
15:15	82.6	82.6	83.4	50	62.0	0	2	0	0.00	30.018 
15:20	82.2	82.2	82.5	47	59.9	0	2	338	0.00	30.018 
15:25	81.8	81.8	82.6	50	61.3	0	1	338	0.00	30.018 
15:30	81.6	81.6	82.3	50	61.1	0	1	338	0.00	30.018 
15:35	81.4	81.4	82.1	50	60.9	0	1	338	0.00	30.018 
15:40	81.6	81.6	82.5	51	61.7	0	1	338	0.00	30.018 
15:45	81.8	81.8	82.8	52	62.4	0	2	135	0.00	30.017 
15:50	82.0	82.0	82.5	48	60.3	0	2	135	0.00	30.017 
15:55	82.0	82.0	82.9	51	62.1	0	1	180	0.00	30.017 
16:00	81.6	81.6	82.5	51	61.7	0	2	180	0.00	30.014 
16:05	81.4	81.4	82.5	53	62.6	0	1	180	0.00	30.014 
16:10	81.1	81.1	82.0	51	61.2	0	1	180	0.00	30.014 
16:15	81.1	81.1	82.1	52	61.8	0	0	---	0.00	30.013 
16:20	81.1	81.1	82.1	52	61.8	0	0	---	0.00	30.013 
16:25	81.2	81.2	82.2	52	61.9	0	1	180	0.00	30.013 
16:30	81.2	81.2	82.1	51	61.3	0	0	---	0.00	30.009 
16:35	81.2	81.2	82.2	52	61.9	0	0	---	0.00	30.009 
16:40	81.2	81.2	82.2	52	61.9	0	0	---	0.00	30.009 
16:45	81.2	81.2	82.1	51	61.3	0	1	180	0.00	30.009 
16:50	81.6	81.6	82.6	52	62.2	0	1	180	0.00	30.009 
16:55	81.6	81.6	82.2	49	60.6	0	1	180	0.00	30.009 
17:00	81.2	81.2	81.9	50	60.8	0	1	180	0.00	30.004 
17:05	81.1	81.1	81.7	49	60.1	0	0	---	0.00	30.004 
17:10	80.9	80.9	81.8	51	61.0	0	0	---	0.00	30.004 
17:15	80.9	80.9	81.8	51	61.0	0	0	---	0.00	30.003 
17:20	80.5	80.5	81.4	51	60.7	0	0	---	0.00	30.003 
17:25	80.5	80.5	81.5	52	61.2	0	0	---	0.00	30.003 
17:30	80.1	80.1	81.1	52	60.9	0	0	---	0.00	30.003 
17:35	79.9	79.9	81.0	53	61.2	0	1	180	0.00	30.003 
17:40	79.8	79.8	81.0	54	61.7	0	0	---	0.00	30.003 
17:45	79.4	79.4	80.8	56	62.3	0	0	---	0.00	30.004 
17:50	79.0	79.0	80.5	57	62.4	0	0	---	0.00	30.004 
17:55	78.6	78.6	80.1	58	62.6	0	1	180	0.00	30.004 
18:00	78.3	78.3	80.0	60	63.2	0	0	---	0.00	30.008 
18:05	77.9	77.9	79.6	62	63.8	0	1	180	0.00	30.008 
18:10	77.6	77.6	79.4	62	63.5	0	1	180	0.00	30.008 
18:15	77.0	77.0	78.8	63	63.4	0	1	180	0.00	30.010 
18:20	76.7	76.7	78.5	64	63.6	0	0	---	0.00	30.010 
18:25	76.5	76.5	78.3	64	63.4	0	1	180	0.00	30.010 
18:30	76.1	76.1	78.0	65	63.5	0	1	180	0.00	30.008 
18:35	76.0	76.0	77.8	66	63.8	0	0	---	0.00	30.008 
18:40	75.8	75.8	77.7	65	63.2	0	0	---	0.00	30.008 
18:45	75.8	75.8	77.7	65	63.2	0	0	---	0.00	30.009 
18:50	75.8	75.8	77.7	66	63.6	0	0	---	0.00	30.009 
18:55	75.6	75.6	77.5	66	63.4	0	0	---	0.00	30.009 
19:00	75.6	75.6	77.5	66	63.4	0	0	---	0.00	30.013 
19:05	75.6	75.6	77.5	66	63.4	0	0	---	0.00	30.013 
19:10	75.4	75.4	77.3	66	63.2	0	0	---	0.00	30.013 
19:15	75.3	75.3	77.2	66	63.1	0	1	180	0.00	30.022 
19:20	75.3	75.3	77.2	67	63.6	0	1	180	0.00	30.022 
19:25	75.1	75.1	76.9	68	63.8	0	1	180	0.00	30.022 
19:30	74.7	74.7	74.7	69	63.8	1	5	338	0.00	30.027 
19:35	74.2	74.2	74.2	70	63.8	0	3	292	0.00	30.027 
19:40	73.7	73.7	73.7	70	63.3	0	1	292	0.00	30.027 
19:45	73.2	73.2	73.2	71	63.2	0	1	292	0.00	30.031 
19:50	72.8	72.8	72.8	71	62.8	0	1	292	0.00	30.031 
19:55	72.7	72.7	72.7	72	63.1	0	1	292	0.00	30.031 
20:00	72.5	72.5	72.5	73	63.3	0	1	292	0.00	30.029 
20:05	72.5	72.5	72.5	73	63.3	0	1	292	0.00	30.029 
20:10	72.3	72.3	72.3	74	63.5	0	2	292	0.00	30.029 
20:15	72.1	72.1	72.1	74	63.3	0	2	292	0.00	30.034 
20:20	71.8	71.8	71.8	75	63.4	0	5	292	0.00	30.034 
20:25	71.6	71.6	71.6	76	63.6	0	1	135	0.00	30.034 
20:30	71.3	71.3	71.3	76	63.3	0	1	135	0.00	30.036 
20:35	71.1	71.1	71.1	76	63.1	0	1	135	0.00	30.036 
20:40	71.1	71.1	71.1	76	63.1	0	0	---	0.00	30.036 
20:45	70.9	70.9	70.9	77	63.3	0	0	---	0.00	30.040 
20:50	70.9	70.9	70.9	77	63.3	0	1	135	0.00	30.040 
20:55	70.9	70.9	70.9	78	63.7	0	0	---	0.00	30.040 
21:00	70.8	70.8	70.8	78	63.6	0	0	---	0.00	30.042 
21:05	70.8	70.8	70.8	79	64.0	0	2	135	0.00	30.042 
21:10	70.8	70.8	70.8	79	64.0	0	1	135	0.00	30.042 
21:15	70.8	70.8	70.8	79	64.0	0	0	---	0.00	30.034 
21:20	70.8	70.8	70.8	80	64.3	0	1	135	0.00	30.034 
21:25	70.8	70.8	70.8	80	64.3	0	0	---	0.00	30.034 
21:30	70.6	70.6	70.6	80	64.1	0	0	---	0.00	30.037 
21:35	70.6	70.6	70.6	80	64.1	0	0	---	0.00	30.037 
21:40	70.4	70.4	70.4	81	64.3	0	0	---	0.00	30.037 
21:45	70.4	70.4	70.4	81	64.3	0	0	---	0.00	30.047 
21:50	70.4	70.4	70.4	81	64.3	0	0	---	0.00	30.047 
21:55	70.4	70.4	70.4	81	64.3	0	0	---	0.00	30.047 
22:00	70.3	70.3	70.3	82	64.5	0	0	---	0.00	30.049 
22:05	70.3	70.3	70.3	82	64.5	0	0	---	0.00	30.049 
22:10	70.3	70.3	70.3	82	64.5	0	0	---	0.00	30.049 
22:15	70.1	70.1	70.1	82	64.3	0	0	---	0.00	30.050 
22:20	70.1	70.1	70.1	83	64.7	0	0	---	0.00	30.050 
22:25	70.1	70.1	70.1	83	64.7	0	0	---	0.00	30.050 
22:30	69.9	69.9	69.9	83	64.5	0	0	---	0.00	30.049 
22:35	69.9	69.9	69.9	83	64.5	0	0	---	0.00	30.049 
22:40	69.8	69.8	69.8	84	64.7	0	0	---	0.00	30.049 
22:45	69.6	69.6	69.6	84	64.5	0	0	---	0.00	30.048 
22:50	69.4	69.4	69.4	84	64.3	0	0	---	0.00	30.048 
22:55	69.4	69.4	69.4	84	64.3	0	0	---	0.00	30.048 
23:00	69.3	69.3	69.3	85	64.6	0	0	---	0.00	30.053 
23:05	69.1	69.1	69.1	85	64.4	0	0	---	0.00	30.053 
23:10	69.1	69.1	69.1	86	64.7	0	0	---	0.00	30.053 
23:15	69.1	69.1	69.1	86	64.7	0	0	---	0.00	30.056 
23:20	69.1	69.1	69.1	86	64.7	0	0	---	0.00	30.056 
23:25	69.1	69.1	69.1	87	65.1	0	0	---	0.00	30.056 
23:30	68.9	68.9	68.9	87	64.9	0	1	135	0.00	30.057 
23:35	68.9	68.9	68.9	87	64.9	0	0	---	0.00	30.057 
23:40	68.9	68.9	68.9	87	64.9	0	0	---	0.00	30.057 
23:45	68.8	68.8	68.8	87	64.8	0	0	---	0.00	30.058 
23:50	68.6	68.6	68.6	87	64.6	0	0	---	0.00	30.058 
23:55	68.6	68.6	68.6	87	64.6	0	0	---	0.00	30.058 

CoCoRaHS
IN-AL-39
A2 Web Hosting
Creative Commons License
GoDaddy
search engine by freefind advanced

loaded 2018-11-13 01:36:42 • last modified 2010-11-18 10:43:29
Privacy PolicyDisclaimer
• wx.awcolley.com is powered by PmWiki v.2002016 •
• all content (unless otherwise noted) © 2018 A W Colley